Location: ????????
(48.4751°N, 37.6926°E)
Time: 13:19:06
(UTC+00:00)

CZ-3B R/B - Pass Details

Date: 20 January 2021
Orbit: 277 x 17417 km, 54.8° (Epoch: 26 February)

Event Time Altitude Azimuth Distance (km) Brightness Sun altitude
Rises 17:06:36 0° 297° (WNW) 2,295 6.0 -29.0°
Reaches altitude 10° 17:07:54 10° 291° (WNW) 1,684 5.1 -29.2°
Maximum altitude 17:11:05 56° 212° (SSW) 988 3.1 -29.7°
Enters shadow 17:11:16 55° 203° (SSW) 1,018 3.1 -29.7°
